This demonstration page uses our WeatherBlox Daily Observations layout. Learn more.

Left ArrowRight Arrow

39.92423, -83.80882

Hourly Observations for August 15, 2016

Temp ( °F °C ) Dew Point ( °F °C ) Humidity (%) Winds ( mph kmh ) Pressure ( in mb ) Visibility ( mi km ) Precip ( " mm )
12:56 am 00:56 Clear 70 21.1 69 20.6 97 97 N N/A 30.12 1020 10 16.0934 N/A
1:56 am 01:56 Mostly Clear 69 20.6 69 20.6 100 100 NNW 3 6 N/A 10 16.0934 N/A
2:56 am 02:56 Cloudy 70 21.1 70 21.1 100 100 SSE 6 9 30.12 1020 10 16.0934 N/A
3:56 am 03:56 Mostly Cloudy 71 21.7 70 21.1 96 96 N N/A 30.12 1020 9 14.48406 N/A
4:56 am 04:56 Partly Cloudy 71 21.7 70 21.1 96 96 N 6 9 N/A 7 11.26538 N/A
5:56 am 05:56 Mostly Cloudy 71 21.7 70 21.1 96 96 N N/A 30.15 1021 7 11.26538 N/A
6:56 am 06:56 Mostly Cloudy with Light Rain 70 21.1 70 21.1 100 100 undefined N/A 30.15 1021 4 6.43736 0.01 0.254
7:56 am 07:56 Mostly Cloudy with Rain 71 21.7 70 21.1 96 96 undefined N/A 30.15 1021 2.5 4.02335 N/A
8:00 am 08:00 Mostly Cloudy with Nearby Thunderstorms 72 22 70 21 94 94 E 3 6 30.15 1021 2.5 4.02335 N/A
8:21 am 08:21 Cloudy with Rain 72 22 70 21 94 94 E 3 6 N/A 2 3.21868 N/A
8:56 am 08:56 Cloudy with Light Rain 71 21.7 70 21.1 96 96 E 6 9 30.15 1021 3 4.82802 N/A
9:56 am 09:56 Cloudy with Light Rain 72 22.2 71 21.7 97 97 undefined N/A N/A 5 8.0467 N/A
10:11 am 10:11 Cloudy with Light Rain 72 22 72 22 100 100 SSE 3 6 30.18 1022 6 9.65604 N/A
11:14 am 11:14 Cloudy with Light Rain 73 23 72 22 94 94 undefined N/A 30.18 1022 10 16.0934 N/A
11:30 am 11:30 Cloudy 73 23 72 22 94 94 N N/A 30.21 1023 10 16.0934 N/A
11:56 am 11:56 Mostly Cloudy 74 23.3 70 21.1 88 88 S 3 6 30.2 1023 10 16.0934 N/A
12:07 pm 12:07 Mostly Cloudy 73 23 70 21 89 89 N N/A 30.18 1022 10 16.0934 N/A
12:37 pm 12:37 Mostly Cloudy 75 24 72 22 89 89 S 5 7 30.18 1022 10 16.0934 N/A
12:53 pm 12:53 Partly Cloudy 75 24 70 21 83 83 N N/A N/A 10 16.0934 N/A
12:56 pm 12:56 Partly Cloudy 76 24.4 71 21.7 85 85 SE 6 9 30.18 1022 10 16.0934 N/A
1:20 pm 13:20 Mostly Cloudy 75 24 70 21 83 83 N N/A 30.18 1022 10 16.0934 N/A
1:46 pm 13:46 Mostly Cloudy 77 25 72 22 83 83 S 3 6 30.18 1022 10 16.0934 N/A
1:56 pm 13:56 Mostly Cloudy 77 25 71 21.7 82 82 SSE 5 7 30.18 1022 10 16.0934 N/A
2:56 pm 14:56 Mostly Cloudy 78 25.6 71 21.7 79 79 ESE 6 9 N/A 10 16.0934 N/A
3:56 pm 15:56 Mostly Cloudy 80 26.7 72 22.2 76 76 E 7 11 30.13 1020 10 16.0934 N/A
4:34 pm 16:34 Partly Cloudy 81 27 72 22 74 74 E 7 11 N/A 10 16.0934 N/A
4:56 pm 16:56 Partly Cloudy 80 26.7 72 22.2 76 76 E 10 17 30.11 1020 10 16.0934 N/A
5:11 pm 17:11 Mostly Cloudy 81 27 72 22 74 74 E 9 15 30.09 1019 10 16.0934 N/A
5:18 pm 17:18 Partly Cloudy 81 27 72 22 74 74 E 10 17 30.09 1019 10 16.0934 N/A
5:25 pm 17:25 Mostly Cloudy 81 27 72 22 74 74 E 10 17 30.09 1019 10 16.0934 N/A
5:33 pm 17:33 Partly Cloudy 81 27 72 22 74 74 E 9 15 30.09 1019 10 16.0934 N/A
5:56 pm 17:56 Mostly Sunny 79 26.1 72 22.2 79 79 E 9 15 30.11 1020 10 16.0934 N/A
6:56 pm 18:56 Mostly Cloudy with Rain 77 25 73 22.8 88 88 E 6 9 30.1 1019 10 16.0934 N/A
7:56 pm 19:56 Sunny 75 23.9 73 22.8 94 94 ESE 7 11 30.09 1019 10 16.0934 0.01 0.254
8:56 pm 20:56 Clear 74 23.3 72 22.2 94 94 SE 9 15 30.1 1019 10 16.0934 N/A
10:56 pm 22:56 Mostly Clear 71 21.7 69 20.6 94 94 SE 6 9 30.1 1019 10 16.0934 N/A
11:56 pm 23:56 Mostly Clear 72 22.2 70 21.1 94 94 SSE 9 15 30.1 1019 10 16.0934 N/A

Powered by AerisWeather